CW1238 Weather Reports


Display with metric or nautical units.
time (UTC)temp
F
wind
direction
speed
MPH
gust
MPH
rain 1hr
in
rain 24hr
in
rain mn
in
humidity
%
barometer
mb
20260905083232 72 276 0.0 1.0 0.00 0.00 0.00 99 1052.9
20260905082727 72 205 0.0 1.0 0.00 0.00 0.00 99 1053.1
20260905082223 72 226 0.0 1.0 0.00 0.00 0.00 99 1053.1
20260905081718 71 195 0.0 0.0 0.00 0.00 0.00 99 1052.8
20260905081214 72 222 0.0 1.0 0.00 0.00 0.00 99 1052.8
20260905080713 71 215 0.0 1.0 0.00 0.00 0.00 99 1052.9
20260905080212 71 204 0.0 1.0 0.00 0.00 0.00 99 1053.1
20260905075712 71 210 0.0 0.0 0.00 0.00 0.00 99 1053.0
20260905075211 71 223 0.0 1.0 0.00 0.00 0.00 99 1052.9
20260905074710 71 115 0.0 0.0 0.00 0.00 0.00 99 1053.1
20260905074206 71 194 0.0 0.0 0.00 0.00 0.00 99 1053.2
20260905073701 71 256 0.0 0.0 0.00 0.00 0.00 99 1053.2
20260905073157 71 216 0.0 0.0 0.00 0.00 0.00 99 1053.1
20260905072656 70 226 0.0 0.0 0.00 0.00 0.00 99 1053.1
20260905072151 71 243 0.0 0.0 0.00 0.00 0.00 99 1053.2
20260905071648 71 239 0.0 0.0 0.00 0.00 0.00 99 1052.9
20260905071143 71 230 0.0 0.0 0.00 0.00 0.00 99 1053.1
20260905070638 72 230 0.0 0.0 0.00 0.00 0.00 99 1052.9
20260905070134 72 230 0.0 0.0 0.00 0.00 0.00 99 1053.1
20260905065633 72 224 0.0 0.0 0.00 0.00 0.00 99 1053.0
20260905065127 72 234 0.0 0.0 0.00 0.00 0.00 99 1053.1
20260905064622 72 244 0.0 0.0 0.00 0.00 0.00 99 1053.2
20260905064118 72 194 0.0 0.0 0.00 0.00 0.00 99 1053.1
20260905063616 72 219 0.0 0.0 0.00 0.00 0.00 99 1053.2
20260905063113 72 222 0.0 0.0 0.00 0.00 0.00 99 1053.1
20260905062608 72 210 0.0 0.0 0.00 0.00 0.00 99 1053.2
20260905062103 72 232 0.0 0.0 0.00 0.00 0.00 99 1053.2
20260905061557 72 252 0.0 0.0 0.00 0.00 0.00 99 1053.0
20260905061057 72 232 0.0 0.0 0.00 0.00 0.00 99 1053.0
20260905060553 71 242 0.0 0.0 0.00 0.00 0.00 99 1052.8
20260905060048 72 242 0.0 0.0 0.00 0.00 0.00 99 1052.8
20260905055547 72 211 0.0 0.0 0.00 0.00 0.00 99 1052.8
20260905055041 71 230 0.0 0.0 0.00 0.00 0.00 99 1052.7
20260905054537 71 240 0.0 0.0 0.00 0.00 0.00 99 1052.7
20260905054033 71 195 1.0 1.0 0.00 0.00 0.00 99 1052.8
20260905053527 72 251 0.0 0.0 0.00 0.00 0.00 99 1052.8
20260905053023 72 242 0.0 1.0 0.00 0.00 0.00 99 1052.7
20260905052522 72 253 0.0 0.0 0.00 0.00 0.00 99 1052.9
20260905052021 72 203 0.0 0.0 0.00 0.00 0.00 99 1052.9
20260905051517 72 357 2.0 3.0 0.00 0.00 0.00 99 1053.0
20260905051014 72 232 0.0 0.0 0.00 0.00 0.00 99 1052.8
20260905050510 72 232 0.0 0.0 0.00 0.00 0.00 99 1052.8
20260905050007 72 233 0.0 0.0 0.00 0.06 0.06 99 1052.7
20260905045455 72 233 0.0 0.0 0.00 0.06 0.06 99 1052.5
20260905044950 73 233 0.0 0.0 0.00 0.06 0.06 99 1052.5
20260905044445 73 232 0.0 0.0 0.00 0.06 0.06 99 1052.4
20260905043944 73 232 0.0 0.0 0.00 0.06 0.06 99 1052.4
20260905043443 73 231 0.0 0.0 0.00 0.06 0.06 99 1052.4
20260905042938 73 232 0.0 0.0 0.00 0.06 0.06 99 1052.6
20260905042433 73 232 0.0 0.0 0.00 0.06 0.06 99 1052.6
20260905041928 73 232 0.0 0.0 0.00 0.06 0.06 99 1052.7
20260905041419 73 232 0.0 0.0 0.00 0.06 0.06 99 1052.6
20260905040918 73 230 0.0 0.0 0.00 0.06 0.06 99 1052.6
20260905040412 73 237 0.0 0.0 0.00 0.06 0.06 99 1052.7
20260905035911 74 237 0.0 0.0 0.00 0.06 0.06 99 1052.5
20260905035407 74 244 0.0 0.0 0.00 0.06 0.06 99 1052.5
20260905034904 74 231 0.0 0.0 0.00 0.06 0.06 99 1052.6
20260905034359 74 246 0.0 0.0 0.00 0.06 0.06 99 1052.6
20260905033857 74 239 0.0 0.0 0.00 0.06 0.06 99 1052.6
20260905033353 75 252 0.0 0.0 0.00 0.06 0.06 99 1052.6
20260905032852 75 238 0.0 0.0 0.00 0.06 0.06 99 1052.5
20260905032348 75 237 0.0 0.0 0.00 0.06 0.06 99 1052.6
20260905031843 75 237 0.0 0.0 0.00 0.06 0.06 98 1052.5
20260905031339 75 237 0.0 0.0 0.00 0.06 0.06 98 1052.5
20260905030833 75 237 0.0 0.0 0.00 0.06 0.06 98 1052.7
20260905030329 75 237 0.0 0.0 0.00 0.06 0.06 98 1052.7
20260905025828 75 237 0.0 0.0 0.00 0.06 0.06 98 1052.7
20260905025324 76 237 0.0 0.0 0.00 0.06 0.06 98 1052.7
20260905024820 76 237 0.0 0.0 0.00 0.06 0.06 98 1052.6
20260905024315 76 237 0.0 0.0 0.00 0.06 0.06 98 1052.4
20260905023811 76 237 0.0 0.0 0.00 0.06 0.06 97 1052.5
20260905023307 76 238 0.0 0.0 0.00 0.06 0.06 97 1052.3
20260905022805 77 229 0.0 0.0 0.00 0.06 0.06 97 1052.3
20260905022301 77 229 0.0 0.0 0.00 0.06 0.06 97 1052.3
20260905021800 77 229 0.0 0.0 0.00 0.06 0.06 96 1052.4
20260905021255 77 229 0.0 0.0 0.00 0.06 0.06 96 1052.3
20260905020749 77 228 0.0 0.0 0.00 0.06 0.06 96 1052.0
20260905020245 77 228 0.0 0.0 0.00 0.06 0.06 96 1052.3
20260905015743 77 228 0.0 0.0 0.00 0.06 0.06 95 1052.2
20260905015238 78 232 0.0 0.0 0.00 0.06 0.06 94 1052.2
20260905014732 78 232 0.0 0.0 0.00 0.06 0.06 94 1052.0
20260905014227 78 231 0.0 0.0 0.00 0.06 0.06 94 1051.8
20260905013723 79 231 0.0 0.0 0.00 0.06 0.06 93 1051.8
20260905013219 79 231 0.0 0.0 0.00 0.06 0.06 93 1051.8
20260905012714 79 231 0.0 0.0 0.00 0.06 0.06 92 1051.8
20260905012210 80 231 0.0 0.0 0.00 0.06 0.06 91 1051.6
20260905011706 80 236 0.0 0.0 0.00 0.06 0.06 90 1051.6
20260905011202 81 237 0.0 0.0 0.00 0.06 0.06 89 1051.6
20260905010701 81 224 0.0 0.0 0.00 0.06 0.06 88 1051.7
20260905010157 81 235 0.0 0.0 0.00 0.06 0.06 88 1051.5
20260905005653 82 221 0.0 1.0 0.00 0.06 0.06 87 1051.5
20260905005148 82 232 0.0 0.0 0.00 0.06 0.06 86 1051.7
20260905004643 82 236 0.0 1.0 0.00 0.06 0.06 86 1051.4
20260905004138 83 220 0.0 0.0 0.00 0.06 0.06 85 1051.6
20260905003633 83 228 1.0 1.0 0.00 0.06 0.06 84 1051.5
20260905003129 84 221 0.0 1.0 0.00 0.06 0.06 84 1051.4
20260905002624 84 228 0.0 0.0 0.00 0.06 0.06 84 1051.5
20260905002119 84 205 1.0 3.0 0.00 0.06 0.06 83 1051.6
20260905001614 85 219 1.0 2.0 0.00 0.06 0.06 83 1051.7
20260905001108 85 230 0.0 1.0 0.00 0.06 0.06 82 1051.5
20260905000604 85 221 0.0 2.0 0.00 0.06 0.06 81 1051.5
20260905000100 86 214 1.0 1.0 0.00 0.06 0.06 81 1051.6
20260904235559 86 221 0.0 1.0 0.00 0.06 0.06 80 1051.5
20260904235059 86 219 1.0 3.0 0.00 0.06 0.06 79 1051.5
20260904234554 86 216 2.0 2.0 0.00 0.06 0.06 78 1051.4
20260904234051 87 230 0.0 2.0 0.00 0.06 0.06 78 1051.5
20260904233550 87 213 1.0 1.0 0.00 0.06 0.06 78 1051.7
20260904233047 87 229 0.0 2.0 0.00 0.06 0.06 78 1051.4
20260904232543 87 205 1.0 3.0 0.00 0.06 0.06 78 1051.5
20260904232039 87 213 1.0 3.0 0.00 0.06 0.06 77 1051.6
20260904231535 87 228 0.0 1.0 0.00 0.06 0.06 76 1051.5
20260904231030 87 219 1.0 2.0 0.00 0.06 0.06 75 1051.6
20260904230529 88 228 0.0 4.0 0.00 0.06 0.06 74 1051.5
20260904230025 88 212 1.0 2.0 0.00 0.06 0.06 74 1051.4
20260904225522 88 182 2.0 6.0 0.00 0.06 0.06 73 1051.3
20260904225021 89 185 3.0 4.0 0.00 0.06 0.06 70 1051.4
20260904224517 89 177 3.0 6.0 0.00 0.06 0.06 70 1051.6
20260904224017 89 239 1.0 2.0 0.00 0.06 0.06 71 1051.2
20260904223516 89 178 2.0 4.0 0.00 0.06 0.06 70 1051.1
20260904223012 89 208 4.0 4.0 0.00 0.06 0.06 69 1051.1
20260904222507 89 239 1.0 7.0 0.00 0.06 0.06 71 1051.1
20260904222008 89 197 4.0 4.0 0.00 0.06 0.06 71 1051.1
20260904221502 89 224 4.0 8.0 0.00 0.06 0.06 71 1051.1
20260904220957 89 220 3.0 4.0 0.00 0.06 0.06 71 1051.0
20260904220456 90 207 4.0 6.0 0.00 0.06 0.06 73 1051.1
20260904215952 89 236 5.0 7.0 0.00 0.06 0.06 72 1050.9
20260904215447 89 241 4.0 6.0 0.00 0.06 0.06 73 1050.9
20260904214943 90 248 2.0 4.0 0.00 0.06 0.06 74 1050.8
20260904214438 89 246 4.0 6.0 0.00 0.06 0.06 74 1050.8
20260904213933 89 231 3.0 10.0 0.00 0.06 0.06 73 1050.9
20260904213426 90 247 5.0 8.0 0.00 0.06 0.06 72 1051.0
20260904212923 90 198 2.0 7.0 0.00 0.06 0.06 72 1050.9
20260904212422 90 169 1.0 6.0 0.00 0.06 0.06 71 1050.8
20260904211918 91 239 6.0 7.0 0.00 0.06 0.06 69 1050.9
20260904211413 91 213 6.0 7.0 0.00 0.06 0.06 68 1050.9
20260904210908 90 223 3.0 4.0 0.00 0.06 0.06 69 1050.9
20260904210407 90 241 4.0 7.0 0.00 0.06 0.06 69 1050.8
20260904205903 91 236 3.0 8.0 0.00 0.06 0.06 69 1051.0
20260904205358 90 238 2.0 4.0 0.00 0.06 0.06 69 1050.7
20260904204855 90 171 4.0 6.0 0.00 0.06 0.06 69 1050.8
20260904204351 90 235 1.0 3.0 0.00 0.06 0.06 72 1050.7
20260904203847 92 136 4.0 6.0 0.00 0.06 0.06 67 1050.9
20260904203343 90 234 3.0 7.0 0.00 0.06 0.06 69 1050.8
20260904202838 90 230 4.0 7.0 0.00 0.06 0.06 70 1050.6
20260904202335 90 209 6.0 9.0 0.00 0.06 0.06 71 1050.7
20260904201830 90 219 4.0 7.0 0.00 0.06 0.06 71 1050.7
20260904201325 91 216 2.0 3.0 0.00 0.06 0.06 70 1050.8
20260904200820 91 214 1.0 7.0 0.00 0.06 0.06 70 1050.8
20260904200318 91 184 3.0 6.0 0.00 0.06 0.06 70 1051.0
20260904195813 91 82 2.0 3.0 0.00 0.06 0.06 71 1050.9
20260904195311 91 236 1.0 6.0 0.00 0.06 0.06 71 1051.1
20260904194806 89 200 4.0 6.0 0.00 0.06 0.06 69 1051.0
20260904194306 89 222 4.0 7.0 0.00 0.06 0.06 70 1051.2
20260904193801 89 212 2.0 3.0 0.00 0.06 0.06 72 1051.0
20260904193256 89 230 2.0 6.0 0.00 0.06 0.06 71 1050.8
20260904192751 90 222 2.0 4.0 0.00 0.06 0.06 70 1050.7
20260904192247 91 218 4.0 6.0 0.00 0.06 0.06 67 1050.6
20260904191744 90 231 1.0 1.0 0.00 0.06 0.06 66 1050.6
20260904191240 90 316 0.0 6.0 0.00 0.06 0.06 67 1050.6
20260904190736 90 94 3.0 4.0 0.00 0.06 0.06 69 1050.4
20260904190232 89 223 2.0 4.0 0.00 0.06 0.06 67 1050.3
20260904185728 89 194 3.0 4.0 0.00 0.06 0.06 68 1050.5
20260904185222 90 225 3.0 6.0 0.00 0.06 0.06 69 1050.2
20260904184721 90 194 4.0 6.0 0.00 0.06 0.06 68 1050.4
20260904184217 89 190 2.0 4.0 0.00 0.06 0.06 69 1050.6
20260904183713 89 192 4.0 6.0 0.00 0.06 0.06 69 1050.7
20260904183212 89 184 4.0 4.0 0.00 0.06 0.06 68 1050.6
20260904182708 89 202 4.0 4.0 0.00 0.06 0.06 70 1050.6
20260904182203 89 212 3.0 4.0 0.00 0.06 0.06 68 1050.6
20260904181659 88 230 3.0 6.0 0.00 0.06 0.06 71 1050.8
20260904181158 89 219 2.0 3.0 0.00 0.06 0.06 68 1050.7
20260904180654 88 205 2.0 3.0 0.00 0.06 0.06 67 1050.6
20260904180149 88 218 1.0 4.0 0.00 0.06 0.06 70 1050.8
20260904175648 89 178 1.0 3.0 0.00 0.06 0.06 68 1050.8
20260904175147 89 222 4.0 4.0 0.00 0.06 0.06 67 1050.6
20260904174641 89 140 1.0 3.0 0.00 0.06 0.06 71 1050.6
20260904174137 88 107 1.0 2.0 0.00 0.06 0.06 69 1050.8
20260904173633 89 230 3.0 3.0 0.00 0.06 0.06 69 1050.8
20260904173123 89 191 0.0 2.0 0.00 0.06 0.06 67 1050.7
20260904172619 88 201 2.0 2.0 0.00 0.06 0.06 71 1050.6
20260904172118 88 224 2.0 3.0 0.00 0.06 0.06 70 1050.9
20260904171613 88 224 1.0 1.0 0.00 0.06 0.06 73 1050.9
20260904171108 87 239 0.0 0.0 0.00 0.06 0.06 72 1050.8
20260904170604 87 234 0.0 0.0 0.00 0.06 0.06 71 1050.9
20260904170054 86 215 1.0 3.0 0.00 0.06 0.06 71 1050.8
20260904165552 86 231 1.0 3.0 0.00 0.06 0.06 71 1050.8
20260904165046 86 235 1.0 2.0 0.00 0.06 0.06 71 1051.0
20260904164536 86 190 2.0 3.0 0.00 0.06 0.06 73 1051.1
20260904164032 88 240 2.0 6.0 0.00 0.06 0.06 71 1051.0
20260904163531 87 219 0.0 2.0 0.00 0.06 0.06 71 1050.6
20260904163027 86 238 2.0 3.0 0.00 0.06 0.06 71 1050.8
20260904162521 88 201 2.0 3.0 0.00 0.06 0.06 71 1050.8
20260904162016 86 236 0.0 1.0 0.00 0.06 0.06 73 1050.9
20260904161516 87 216 2.0 3.0 0.00 0.06 0.06 73 1050.8
20260904161012 86 200 4.0 4.0 0.00 0.06 0.06 73 1050.8
20260904160507 86 225 4.0 6.0 0.00 0.06 0.06 73 1050.9
20260904160003 85 241 1.0 4.0 0.00 0.06 0.06 75 1050.9
20260904155457 85 242 2.0 3.0 0.00 0.06 0.06 76 1050.9
20260904154955 84 208 2.0 4.0 0.00 0.06 0.06 76 1051.0
20260904154450 84 236 4.0 6.0 0.00 0.06 0.06 76 1050.7
20260904153945 84 221 1.0 3.0 0.00 0.06 0.06 77 1050.9
20260904153440 83 224 2.0 3.0 0.00 0.06 0.06 77 1050.8
20260904152936 83 209 2.0 4.0 0.00 0.06 0.06 78 1050.9
20260904152432 83 260 4.0 4.0 0.00 0.06 0.06 79 1050.7
20260904151931 82 244 4.0 7.0 0.00 0.06 0.06 79 1050.8
20260904151426 82 228 2.0 4.0 0.00 0.06 0.06 80 1050.6
20260904150921 82 207 2.0 6.0 0.00 0.06 0.06 81 1050.6
20260904150416 81 163 3.0 7.0 0.00 0.06 0.06 81 1050.8
20260904145913 81 244 4.0 6.0 0.00 0.06 0.06 81 1050.7
20260904145410 81 254 4.0 4.0 0.00 0.06 0.06 81 1050.6
20260904144905 80 239 3.0 3.0 0.00 0.06 0.06 82 1050.8
20260904144401 80 250 3.0 4.0 0.00 0.06 0.06 82 1050.7
20260904143856 80 167 2.0 3.0 0.00 0.06 0.06 82 1050.5
20260904143353 79 228 2.0 6.0 0.00 0.06 0.06 82 1050.7
20260904142849 79 207 2.0 3.0 0.00 0.06 0.06 84 1050.4
20260904142345 79 214 3.0 4.0 0.00 0.06 0.06 83 1050.6
20260904141839 78 222 1.0 3.0 0.00 0.06 0.06 84 1050.7
20260904141335 78 207 1.0 2.0 0.00 0.06 0.06 83 1050.6
20260904140831 78 204 2.0 2.0 0.00 0.06 0.06 85 1050.6
20260904140326 78 216 1.0 1.0 0.00 0.06 0.06 87 1050.5
20260904135824 77 212 0.0 1.0 0.00 0.06 0.06 87 1050.5
20260904135319 77 210 1.0 1.0 0.00 0.06 0.06 87 1050.8
20260904134816 74 228 0.0 0.0 0.00 0.06 0.06 95 1050.7
20260904134315 73 228 0.0 0.0 0.00 0.06 0.06 97 1050.7
20260904133810 72 224 0.0 0.0 0.00 0.06 0.06 97 1050.5
20260904133306 73 241 0.0 0.0 0.00 0.06 0.06 97 1050.5
20260904132805 73 241 0.0 0.0 0.00 0.06 0.06 97 1050.4
20260904132301 73 241 0.0 0.0 0.00 0.06 0.06 97 1050.5
20260904131800 73 220 0.0 0.0 0.00 0.06 0.06 97 1050.4
20260904131256 73 205 1.0 1.0 0.00 0.06 0.06 97 1050.5
20260904130755 73 240 0.0 0.0 0.00 0.06 0.06 95 1050.3
20260904130249 74 230 0.0 0.0 0.00 0.06 0.06 94 1050.2
20260904125745 74 227 0.0 1.0 0.00 0.06 0.06 93 1050.2
20260904125240 74 228 0.0 1.0 0.00 0.06 0.06 93 1050.3
20260904124735 75 221 2.0 2.0 0.00 0.06 0.06 91 1050.3
20260904124231 75 247 2.0 3.0 0.00 0.06 0.06 91 1050.3
20260904123726 75 237 1.0 2.0 0.00 0.06 0.06 91 1050.1
20260904123222 77 256 1.0 3.0 0.35 0.06 0.06 89 1050.2
20260904122721 76 179 4.0 7.0 0.35 0.06 0.06 85 1049.9
20260904122216 77 240 9.0 13.0 0.00 0.00 0.00 80 1050.3
20260904121711 77 280 5.0 9.0 0.00 0.00 0.00 83 1050.4
20260904121207 75 232 2.0 6.0 0.00 0.00 0.00 85 1050.3
20260904120703 74 227 0.0 0.0 0.00 0.00 0.00 91 1050.0
20260904120159 74 238 1.0 2.0 0.00 0.00 0.00 91 1050.0
20260904115654 73 220 0.0 2.0 0.00 0.00 0.00 94 1050.3
20260904115149 73 222 1.0 2.0 0.00 0.00 0.00 94 1050.1
20260904114643 73 256 1.0 2.0 0.00 0.00 0.00 93 1049.9
20260904114144 73 228 0.0 0.0 0.00 0.00 0.00 93 1050.0
20260904113643 73 231 0.0 0.0 0.00 0.00 0.00 94 1049.8
20260904113142 73 218 0.0 0.0 0.00 0.00 0.00 94 1049.6
20260904112638 73 234 0.0 0.0 0.00 0.00 0.00 94 1049.7
20260904112135 73 234 0.0 0.0 0.00 0.00 0.00 94 1049.8
20260904111630 73 234 0.0 0.0 0.00 0.00 0.00 93 1049.8
20260904111125 73 234 0.0 0.0 0.00 0.00 0.00 93 1049.8
20260904110621 73 233 0.0 0.0 0.00 0.00 0.00 93 1049.9
20260904110114 73 223 0.0 0.0 0.00 0.00 0.00 93 1049.7
20260904105614 73 223 0.0 0.0 0.00 0.00 0.00 93 1049.8
20260904105109 73 223 0.0 0.0 0.00 0.00 0.00 92 1049.6
20260904104604 73 224 0.0 0.0 0.00 0.00 0.00 92 1049.7
20260904104100 73 225 0.0 0.0 0.00 0.00 0.00 92 1049.6
20260904103555 73 230 0.0 0.0 0.00 0.00 0.00 92 1049.7
20260904103051 73 228 0.0 0.0 0.00 0.00 0.00 92 1049.7
20260904102547 73 225 0.0 0.0 0.00 0.00 0.00 92 1049.8
20260904102042 73 225 0.0 1.0 0.00 0.00 0.00 92 1049.7
20260904101539 73 229 0.0 0.0 0.00 0.00 0.00 92 1049.7
20260904101034 73 229 0.0 0.0 0.00 0.00 0.00 92 1049.7
20260904100530 73 226 0.0 0.0 0.00 0.00 0.00 92 1049.5
20260904100025 73 212 0.0 1.0 0.00 0.00 0.00 91 1049.6
20260904095520 73 227 0.0 0.0 0.00 0.00 0.00 92 1049.6
20260904095015 73 220 1.0 1.0 0.00 0.00 0.00 92 1049.6
20260904094509 73 230 0.0 0.0 0.00 0.00 0.00 92 1049.6
20260904094005 73 220 0.0 1.0 0.00 0.00 0.00 92 1049.4
20260904093502 73 225 0.0 0.0 0.00 0.00 0.00 92 1049.5
20260904092951 73 215 1.0 1.0 0.00 0.00 0.00 92 1049.5
20260904092447 73 229 0.0 0.0 0.00 0.00 0.00 92 1049.5
20260904091942 73 223 0.0 1.0 0.00 0.00 0.00 91 1049.6
20260904091439 74 220 0.0 0.0 0.00 0.00 0.00 91 1049.3
20260904090938 74 221 0.0 0.0 0.00 0.00 0.00 91 1049.3
20260904090435 74 225 0.0 1.0 0.00 0.00 0.00 90 1049.2
20260904085929 74 226 2.0 2.0 0.00 0.00 0.00 90 1049.0
20260904085425 74 224 0.0 2.0 0.00 0.00 0.00 90 1049.4
20260904084924 74 219 1.0 2.0 0.00 0.00 0.00 90 1049.4
20260904084421 75 225 1.0 1.0 0.00 0.00 0.00 90 1049.4
20260904083916 75 189 2.0 4.0 0.00 0.00 0.00 90 1049.3